[[{"header":{"parameterUnit":"m.s-1","parameterCategory":1,"la1":30.2991,"la2":30.254,"lo1":-89.0895,"lo2":-89.0444,"dy":0.0017,"dx":0.0017,"nx":28,"ny":28,"refTime":"2024-03-25T09:00:00:Z","depth":0,"parameterNumber":2,"parameterNumberName":"U-component_of_WINDS"},"data":[0,0,0,0,0,0,0,0,0,0,0,0,0,0,0,0,0,0,0,0,0,0,0,0,0,0,0,0,0,0,0,0,0,0,0,0,0,0,0,0,0,0,0,0,0,0,0,0,0,0,0,0,0,0,0,0,0,0,-10.1857,-10.186,0,-10.2094,-10.2097,-10.2099,-10.2144,-10.2142,-10.2141,-10.2139,-10.2373,-10.2381,-10.2389,0,0,0,0,0,0,0,0,0,0,0,0,0,-10.1437,-10.1444,-10.1857,-10.186,-10.1863,-10.2093,-10.2097,-10.21,-10.2145,-10.2142,-10.214,-10.2138,-10.2371,-10.238,-10.239,0,0,0,0,0,0,0,0,0,0,0,0,0,-10.1641,-10.1447,-10.1856,-10.1913,-10.1921,-10.2093,-10.2097,-10.2101,-10.2145,-10.2142,-10.214,-10.2137,-10.2367,-10.2379,-10.2391,-10.2521,0,0,-10.2427,-10.2433,0,0,0,0,0,0,0,0,-10.1629,-10.1656,-10.1902,-10.1909,-10.1918,-10.2087,-10.2035,-10.2241,-10.2146,-10.206,-10.2139,-10.2136,-10.228,-10.2299,-10.2349,-10.2532,-10.2542,-10.2429,-10.2436,-10.2441,-10.2444,0,0,0,0,0,0,0,-10.1615,-10.1646,-10.195,-10.1905,-10.1915,-10.1925,-10.1951,-10.2074,-10.2182,-10.2067,-10.2071,-10.2099,-10.2284,-10.2337,-10.2355,-10.2545,-10.2428,-10.2439,-10.2446,-10.2451,-10.2846,-10.2849,0,0,0,0,0,0,-10.1592,-10.1634,-10.1943,-10.1957,-10.1764,-10.1934,-10.1963,-10.2035,-10.2181,-10.2201,-10.2101,-10.21,-10.2318,-10.2341,-10.2363,-10.2523,-10.2441,-10.2452,-10.2459,-10.2842,-10.2846,-10.285,0,0,0,0,0,0,-10.1582,-10.1619,-10.1933,-10.1797,-10.1838,-10.1945,-10.2025,-10.2041,-10.2095,-10.2207,-10.2225,-10.2136,-10.2317,-10.2346,-10.2482,-10.2532,-10.2457,-10.2468,-10.2839,-10.2844,-10.2848,-10.2844,0,0,0,0,0,0,-10.157,-10.1615,-10.1667,-10.1798,-10.1845,-10.2049,-10.2028,-10.2048,-10.2117,-10.2118,-10.2245,-10.2263,-10.2317,-10.2464,-10.2494,-10.2547,-10.2478,-10.2834,-10.2841,-10.2847,-10.284,-10.2849,-10.2856,0,0,0,0,0,-10.1555,-10.1654,-10.1669,-10.1706,-10.1912,-10.2052,-10.2079,-10.2141,-10.2121,-10.2172,-10.2244,-10.2259,-10.2523,-10.2477,-10.2511,-10.2569,-10.2831,-10.2839,-10.2846,-10.2837,-10.2847,-10.2855,0,0,0,0,0,0,-10.1523,-10.1673,-10.169,-10.1836,-10.1931,-10.2059,-10.2126,-10.215,-10.225,-10.2247,-10.2318,-10.2346,-10.2477,-10.2537,-10.2484,-10.2702,-10.2676,-10.269,-10.2657,-10.2667,-10.2675,-10.2655,-10.2488,0,0,0,0,0,-10.1533,-10.1637,-10.1762,-10.1878,-10.1925,-10.2018,-10.2081,-10.2122,-10.2222,-10.2261,-10.2343,-10.2438,-10.2542,-10.2609,-10.2711,-10.2852,-10.2878,-10.2908,-10.2916,-10.2922,-10.2931,-10.3008,-10.3022,-10.2874,-10.2874,-10.2874,0,0,-10.1554,-10.1649,-10.1709,-10.1874,-10.1952,-10.2055,-10.2051,-10.216,-10.2237,-10.2277,-10.2409,-10.2474,-10.2584,-10.2722,-10.2787,-10.2776,-10.298,-10.2931,-10.2935,-10.2942,-10.3018,-10.3031,-10.3044,-10.288,-10.2879,-10.2878,0,0,-10.1644,-10.1729,-10.1834,-10.1914,-10.2035,-10.2096,-10.2122,-10.2248,-10.2292,-10.2428,-10.246,-10.2552,-10.273,-10.2808,-10.287,-10.2994,-10.301,-10.3026,-10.3063,-10.3137,-10.3149,-10.3159,-10.32,-10.3215,-10.3037,-10.3037,-10.3037,0,-10.1654,-10.1813,-10.1884,-10.1993,-10.2063,-10.2109,-10.2215,-10.2289,-10.2435,-10.2481,-10.2469,-10.2695,-10.2773,-10.2929,-10.2959,-10.301,-10.3039,-10.3008,-10.3142,-10.3154,-10.3164,-10.3204,-10.322,-10.3037,-10.3037,-10.3037,-10.3037,0,-10.1818,-10.1928,-10.1998,-10.2142,-10.2221,-10.2327,-10.2412,-10.2484,-10.2519,-10.2581,-10.2717,-10.2814,-10.2936,-10.2977,-10.3011,-10.3138,-10.3128,-10.3129,-10.3102,-10.3178,-10.3216,-10.3232,-10.3038,-10.3038,-10.3038,-10.3038,0,0,-10.1888,-10.2073,-10.2097,-10.2163,-10.2301,-10.2386,-10.2495,-10.2618,-10.2676,-10.2778,-10.2868,-10.302,-10.3023,-10.3094,-10.3138,-10.3204,-10.3292,-10.3196,-10.32,-10.3207,-10.3435,-10.343,-10.3447,-10.3307,-10.331,-10.3313,-10.3424,0,-10.1992,-10.2189,-10.2258,-10.2419,-10.2521,-10.2568,-10.2663,-10.2757,-10.2819,-10.2913,-10.2981,-10.3086,-10.3083,-10.3126,-10.3194,-10.3267,-10.3338,-10.3261,-10.3388,-10.3391,-10.3353,-10.3467,-10.3462,-10.3563,-10.344,-10.3443,-10.3445,0,-10.2138,-10.2243,-10.2416,-10.2543,-10.2588,-10.2672,-10.279,-10.288,-10.2988,-10.3028,-10.311,-10.315,-10.3263,-10.3236,-10.3392,-10.3337,-10.3395,-10.3439,-10.3444,-10.3454,-10.3418,-10.3475,-10.3597,-10.361,-10.347,-10.3468,-10.3466,0,-10.2167,-10.2353,-10.248,-10.2536,-10.2687,-10.2745,-10.281,-10.2916,-10.2986,-10.3089,-10.3134,-10.3249,-10.331,-10.3397,-10.3466,-10.344,-10.3615,-10.3593,-10.3649,-10.3647,-10.3679,-10.3675,-10.3806,-10.3724,-10.3724,-10.3724,-10.3723,0,-10.2272,-10.2375,-10.2495,-10.2573,-10.2689,-10.2768,-10.288,-10.2948,-10.3042,-10.3132,-10.3182,-10.3265,-10.3354,-10.3448,-10.3503,-10.3623,-10.3651,-10.3685,-10.3697,-10.3678,-10.3673,-10.3712,-10.3705,-10.3728,-10.3727,-10.3726,-10.3725,0,-10.2322,-10.2407,-10.2549,-10.2683,-10.2719,-10.2798,-10.2912,-10.2988,-10.3055,-10.3168,-10.3199,-10.3302,-10.3416,-10.3496,-10.3642,-10.3679,-10.3807,-10.3821,-10.377,-10.3775,-10.3825,-10.3818,-10.3982,-10.4006,-10.3912,-10.3912,-10.3913,0,-10.2381,-10.2461,-10.2605,-10.2671,-10.2737,-10.2841,-10.2914,-10.2995,-10.3068,-10.3198,-10.3258,-10.3376,-10.3474,-10.3654,-10.374,-10.3852,-10.3866,-10.3917,-10.3883,-10.3861,-10.3862,-10.3855,-10.3862,-10.3919,-10.392,-10.3921,-10.3921,0,-10.2475,-10.2514,-10.2618,-10.2737,-10.2823,-10.292,-10.3017,-10.3067,-10.3165,-10.3244,-10.3363,-10.344,-10.3591,-10.3706,-10.3827,-10.3892,-10.3922,-10.3932,-10.395,-10.3928,-10.3894,-10.391,-10.3779,-10.3926,-10.3926,-10.3925,-10.3925,-10.3925,-10.2529,-10.2602,-10.2715,-10.2829,-10.2912,-10.3002,-10.3081,-10.3159,-10.326,-10.339,-10.3432,-10.3555,-10.3661,-10.3827,-10.3895,-10.3991,-10.3987,-10.4014,-10.402,-10.4024,-10.4021,-10.3884,-10.4013,-10.4013,-10.4013,-10.4013,-10.4013,0,-10.2622,-10.2699,-10.2803,-10.2939,-10.3028,-10.3054,-10.3164,-10.3236,-10.3344,-10.3442,-10.3539,-10.3675,-10.3789,-10.3886,-10.4003,-10.406,-10.4077,-10.4088,-10.4082,-10.4096,-10.402,-10.3991,-10.4073,-10.4073,-10.4073,-10.4073,-10.4073,-10.4073,-10.2681,-10.2807,-10.286,-10.3026,-10.3102,-10.3223,-10.3284,-10.3367,-10.3446,-10.3596,-10.3692,-10.3756,-10.3854,-10.3979,-10.4083,-10.4109,-10.4148,-10.4155,-10.4183,-10.4109,-10.4101,-10.4095,-10.4067,-10.4164,-10.4164,-10.4251,-10.4252,-10.4252]},{"header":{"parameterUnit":"m.s-1","parameterCategory":1,"la1":30.2991,"la2":30.254,"lo1":-89.0895,"lo2":-89.0444,"dy":0.0017,"dx":0.0017,"nx":28,"ny":28,"refTime":"2024-03-25T09:00:00:Z","depth":0,"parameterNumber":3,"parameterNumberName":"V-component_of_WINDS"},"data":[0,0,0,0,0,0,0,0,0,0,0,0,0,0,0,0,0,0,0,0,0,0,0,0,0,0,0,0,0,0,0,0,0,0,0,0,0,0,0,0,0,0,0,0,0,0,0,0,0,0,0,0,0,0,0,0,0,0,5.7231,5.7232,0,5.7351,5.7353,5.7354,5.7369,5.7368,5.7366,5.7365,5.7483,5.7487,5.7491,0,0,0,0,0,0,0,0,0,0,0,0,0,5.701,5.7014,5.723,5.7232,5.7234,5.7351,5.7353,5.7354,5.7369,5.7368,5.7366,5.7365,5.7481,5.7486,5.7491,0,0,0,0,0,0,0,0,0,0,0,0,0,5.7115,5.7015,5.723,5.7255,5.7259,5.7351,5.7353,5.7355,5.7369,5.7367,5.7366,5.7364,5.748,5.7486,5.7492,5.7566,0,0,5.7511,5.7514,0,0,0,0,0,0,0,0,5.7109,5.7123,5.725,5.7254,5.7258,5.7343,5.7318,5.7425,5.737,5.7327,5.7365,5.7363,5.7437,5.7447,5.7473,5.7571,5.7576,5.7512,5.7516,5.7519,5.752,0,0,0,0,0,0,0,5.7102,5.7118,5.7278,5.7252,5.7257,5.7259,5.7272,5.7338,5.739,5.7331,5.7332,5.7346,5.7439,5.7467,5.7476,5.7578,5.7512,5.7517,5.7521,5.7524,5.7746,5.7748,0,0,0,0,0,0,5.7091,5.7112,5.7274,5.7282,5.7178,5.7265,5.7279,5.7317,5.739,5.7399,5.7348,5.7347,5.7457,5.7469,5.748,5.7574,5.7518,5.7524,5.7528,5.7744,5.7746,5.7748,0,0,0,0,0,0,5.7086,5.7105,5.7269,5.7197,5.7219,5.727,5.7313,5.7321,5.7349,5.7403,5.7412,5.7367,5.7456,5.7471,5.7546,5.7578,5.7527,5.7533,5.7741,5.7744,5.7747,5.7759,0,0,0,0,0,0,5.7079,5.7103,5.7132,5.7198,5.7222,5.7334,5.7315,5.7324,5.7361,5.736,5.7423,5.7432,5.7456,5.7536,5.7552,5.7586,5.7538,5.7738,5.7743,5.7746,5.7756,5.7762,5.7768,0,0,0,0,0,5.7071,5.7129,5.7134,5.7153,5.726,5.7335,5.7349,5.7378,5.7363,5.7393,5.7428,5.743,5.7572,5.7544,5.7561,5.7597,5.7736,5.7741,5.7746,5.7754,5.7761,5.7768,0,0,0,0,0,0,5.7062,5.7138,5.7144,5.7225,5.7274,5.7338,5.7376,5.7384,5.7437,5.7434,5.7466,5.748,5.7553,5.7582,5.755,5.7674,5.7653,5.7661,5.7652,5.766,5.7666,5.7657,5.7543,0,0,0,0,0,5.7071,5.7127,5.7189,5.7254,5.7279,5.7323,5.7357,5.7375,5.7426,5.7447,5.7487,5.7535,5.7591,5.7627,5.7681,5.7761,5.7775,5.7794,5.78,5.7805,5.7812,5.7858,5.7868,5.7764,5.7764,5.7764,0,0,5.7086,5.7134,5.7168,5.7254,5.7294,5.7351,5.734,5.74,5.7443,5.7455,5.7529,5.756,5.7616,5.7695,5.7731,5.7721,5.7844,5.7811,5.7814,5.7819,5.7864,5.7874,5.7883,5.7767,5.7767,5.7766,0,0,5.7145,5.7187,5.7247,5.7289,5.7351,5.7381,5.7396,5.7459,5.7482,5.7557,5.7568,5.7618,5.7713,5.7754,5.7786,5.7864,5.7869,5.7881,5.7911,5.7956,5.7964,5.7972,5.8001,5.8011,5.7887,5.7888,5.7888,0,5.7157,5.7245,5.7276,5.7338,5.7376,5.7392,5.7454,5.7492,5.7568,5.7593,5.7582,5.7704,5.7743,5.7832,5.7851,5.7877,5.7895,5.7874,5.7961,5.7969,5.7976,5.8004,5.8015,5.7889,5.7889,5.7888,5.7888,0,5.7257,5.7318,5.7359,5.7436,5.7478,5.7538,5.7579,5.7618,5.7633,5.7664,5.7741,5.7788,5.7854,5.7876,5.7889,5.7968,5.7961,5.7955,5.7934,5.7987,5.8014,5.8025,5.789,5.789,5.789,5.7889,0,0,5.7312,5.7408,5.7423,5.7459,5.753,5.7577,5.7639,5.7706,5.774,5.7792,5.7845,5.7926,5.7923,5.796,5.7979,5.8018,5.808,5.8008,5.801,5.8021,5.8171,5.8176,5.8188,5.8083,5.8085,5.8087,5.8167,0,5.738,5.7494,5.7525,5.7621,5.7678,5.7696,5.775,5.78,5.7831,5.7883,5.7916,5.7975,5.7964,5.7988,5.8028,5.8064,5.811,5.8058,5.8133,5.8135,5.812,5.8202,5.8206,5.8279,5.8177,5.8179,5.818,0,5.7475,5.7533,5.7635,5.7702,5.7727,5.7776,5.7841,5.7891,5.7947,5.7967,5.8011,5.8027,5.8092,5.8068,5.8158,5.8122,5.8155,5.8177,5.8181,5.8189,5.8161,5.8214,5.8303,5.8314,5.8197,5.8196,5.8195,0,5.7508,5.761,5.7686,5.7716,5.7795,5.7829,5.7863,5.7919,5.7958,5.8014,5.804,5.8101,5.8136,5.8183,5.8215,5.8194,5.8304,5.8282,5.8322,5.8322,5.8345,5.8343,5.8441,5.8363,5.8363,5.8363,5.8363,0,5.7582,5.7644,5.7702,5.7748,5.7819,5.7854,5.7923,5.7957,5.8007,5.806,5.8078,5.8127,5.8166,5.822,5.8245,5.8318,5.8332,5.835,5.8356,5.835,5.8348,5.8372,5.8368,5.8366,5.8365,5.8365,5.8364,0,5.763,5.7671,5.7755,5.7825,5.7844,5.7893,5.7952,5.7997,5.803,5.8097,5.8114,5.8165,5.823,5.8267,5.8347,5.8365,5.8446,5.8449,5.8428,5.8431,5.847,5.8466,5.8588,5.8607,5.8515,5.8516,5.8517,0,5.7675,5.7724,5.78,5.7838,5.7874,5.7934,5.7976,5.8012,5.8054,5.8124,5.8161,5.8228,5.8284,5.8387,5.843,5.8492,5.8498,5.8536,5.8507,5.85,5.8501,5.8498,5.8504,5.8541,5.8542,5.8543,5.8543,0,5.7751,5.7771,5.783,5.7898,5.7947,5.8001,5.8054,5.8084,5.813,5.8176,5.8244,5.8288,5.8373,5.8439,5.8506,5.854,5.855,5.8552,5.8566,5.8559,5.8546,5.8556,5.8443,5.8549,5.8549,5.8548,5.8548,5.8548,5.7801,5.7847,5.7908,5.7974,5.8019,5.807,5.8117,5.8157,5.8215,5.8289,5.8307,5.8379,5.8436,5.8527,5.8563,5.862,5.8613,5.8631,5.8636,5.8641,5.8643,5.8537,5.8632,5.8632,5.8632,5.8631,5.8631,0,5.788,5.7922,5.7982,5.8059,5.8111,5.8118,5.8178,5.8221,5.8286,5.8339,5.8395,5.8474,5.8539,5.8588,5.8655,5.8691,5.8698,5.8707,5.8706,5.8714,5.8644,5.8627,5.8702,5.8701,5.8701,5.8701,5.8701,5.8701,5.7928,5.8006,5.8033,5.8134,5.8174,5.8247,5.8281,5.8328,5.8371,5.846,5.8516,5.8548,5.86,5.8671,5.8731,5.8744,5.8768,5.8778,5.8792,5.8726,5.8718,5.8711,5.8696,5.8783,5.8783,5.8857,5.8857,5.8858]}]]